Regional Weather Roundup
Issued by NWS

Home | Current Version | Previous Version | Graphics & Text | Print | Product List | Glossary On
Versions: 1 2 3 4 5 6 7 8 9 10 11 12 13 14 15 16 17 18 19 20 21 22 23 24 25 26 27 28 29 30 31 32 33 34 35 36 37 38 39 40 41 42 43 44 45 46 47 48 49 50
000
ASUS44 KMEG 180310
RWRTN
TENNESSEE HOURLY STATE WEATHER ROUNDUP
NATIONAL WEATHER SERVICE MEMPHIS TN
900 PM CST SUN DEC 17 2017

TNZ002-004-019-021-049-052-054-088>092-180400-
WEST TENNESSEE

CITY           SKY/WX    TMP DP  RH WIND       PRES   REMARKS
MEMPHIS INTL   CLOUDY    47  46  97 S5        30.14S FOG
NWS MEMPHIS      N/A     46 N/A N/A MISG        N/A
JACKSON        CLOUDY    47  47 100 S3        30.14S
DYERSBURG      CLOUDY    46  44  93 S6        30.14S
SOMERVILLE     CLOUDY    46  46 100 CALM      30.13S FOG
COVINGTON      CLOUDY    46  46 100 CALM      30.14S FOG
UNION CITY     CLOUDY    46  45  93 S3        30.13S
BOLIVAR        CLOUDY    48  46  93 CALM      30.14R FOG
PARIS          CLOUDY    45  45 100 CALM      30.12F
HUNTINGDON     CLOUDY    46  46 100 S3        30.12F
LEXINGTON      CLOUDY    46  46 100 CALM      30.13F
SELMER         FOG       46  46 100 CALM      30.13S VSB 1
SAVANNAH       CLOUDY    46  46 100 CALM      30.13F FOG
$$

TNZ008-025-027-028-033-062-065-066-180400-
NORTH MIDDLE TENNESSEE

CITY           SKY/WX    TMP DP  RH WIND       PRES   REMARKS
NASHVILLE      FOG       47  46  97 CALM      30.16S VSB 1
PORTLAND       CLOUDY    43  43 100 CALM      30.15S FOG
CLARKSVILLE    CLOUDY    44  42  93 CALM      30.14F FOG
SMYRNA         CLOUDY    46  46 100 CALM      30.17S FOG
COOKEVILLE     CLOUDY    46  45  93 CALM      30.15S FOG
GALLATIN       CLOUDY    45  43  93 CALM      30.18F FOG
CROSSVILLE     CLOUDY    42  41  96 SW5       30.16S FOG
$$

TNZ061-075-076-078-094-096-097-180400-
SOUTH MIDDLE TENNESSEE

CITY           SKY/WX    TMP DP  RH WIND       PRES   REMARKS
FAYETTEVILLE   CLOUDY    45  45 100 S3        30.15S FOG
TULLAHOMA      FOG       46  46 100 CALM      30.15S VSB 3/4
WINCHESTER     CLOUDY    45  45 100 E7        30.16F
MCMINNVILLE    CLOUDY    46  46 100 CALM      30.16S FOG
COLUMBIA       FOG       46  46 100 CALM      30.13F VSB 1
SHELBYVILLE    CLOUDY    46  45  93 S5        30.16S
$$

TNZ017-018-042-046-047-180400-
NORTHEAST TENNESSEE

CITY           SKY/WX    TMP DP  RH WIND       PRES   REMARKS
TRI CITIES     CLOUDY    40  39  97 CALM      30.19S
ELIZABETHTON   CLOUDY    41  37  87 SW5       30.19S
$$

TNZ012-013-036-069-073-074-180400-
CENTRAL EAST TENNESSEE

CITY           SKY/WX    TMP DP  RH WIND       PRES   REMARKS
KNOXVILLE      CLOUDY    41  41 100 CALM      30.18S FOG
OAK RIDGE      CLOUDY    42  42 100 CALM      30.21R
DOWNTOWN KNOXV CLOUDY    41  41 100 CALM      30.21R FOG
GATLINBURG     CLOUDY    41  39  93 CALM      30.19F
MORRISTOWN     CLOUDY    39  39 100 CALM      30.19R FOG
JACKSBORO      CLOUDY    43  39  87 NE3       30.21S
$$

TNZ083-085-099-180400-
SOUTHEAST TENNESSEE

CITY           SKY/WX    TMP DP  RH WIND       PRES   REMARKS
CHATTANOOGA    FOG       42  41  96 CALM      30.20S VSB 3/4
DAYTON         CLOUDY    43  43 100 CALM      30.19S FOG
$$

SKY/WX REPORTED AS FAIR MEANS FEW OR NO CLOUDS BELOW
12 THOUSAND FEET.




USA.gov is the U.S. government's official web portal to all federal, state and local government web resources and services.